カタログに戻る

CZ-6A DEB

運用中SSO
NORAD 54918·DEBRIS·🇨🇳 China

打ち上げ Nov 11, 2022 から Taiyuan Satellite Launch Center

Loading…

次のパス (今後24時間)

TLE

最新Source: Space-Track

元期: Sep 14, 2026, 23:26 UTC

1 54918U 22151RF  26257.97701411  .00001484  00000-0  69412-3 0  9992
2 54918  98.8143 273.4178 0030140  45.2682 315.0941 14.21579417195075

AllMySatでCZ-6A DEBをリアルタイム追跡

Download on the App Store